Starlink 31868

operational
NORAD ID: 59783 Int'l Des: 2024-093 Owner: SPXS Country: US Constellation: starlink
LEOCIRCULAR

About Starlink 31868

Description loading...

Live Position

Loading 3D Globe...

Upcoming Passes

Altitude History

Altitude vs Time

uPlot chart will show altitude changes over time

Two-Line Element Set

1 59783U 24093B 25353.21131342 -.00001710 00000-0 -52612-4 0 9996
2 59783 43.0015 300.1740 0001132 268.6149 91.4573 15.27591667 90428
Epoch: Dec 19, 2025 • Age: 13 hours

Current Status

Altitude 486.6 km
Velocity 7.63 km/s
Sub-Earth Point 41.70°N, 45.55°E
Launch Date May 18, 2024
Age 1.5 years
Type internet

Technical Details

Classification Payload
Mass 730.00 kg
Dry Mass 700.00 kg
Total Mass 730.00 kg
Length 0.30 m
Diameter 4.10 m
Span 29.00 m
Shape Box + pan
Manufacturer SPXS
Bus Type Starlink V2M
Phase Status In Orbit
Owner/State SPXS/US

Large Constellations

Loading constellations...